Change the Weather History Date:

Sunday, May 18, 2014

  Actual Average Record
Temperature  
Mean Temperature 86 °F 79 °F  
Max Temperature 104 °F 96 °F 109 °F (1973)
Min Temperature 68 °F 62 °F 51 °F (1998)
Degree Days  
Heating Degree Days 0 0  
Month to date heating degree days 0 0  
Since 1 July heating degree days 821 1180  
Cooling Degree Days 21 14  
Month to date cooling degree days 224 216  
Year to date cooling degree days 586 472  
Growing Degree Days 36 (Base 50)    
Moisture  
Dew Point 37 °F    
Average Humidity 21    
Maximum Humidity 34    
Minimum Humidity 7    
Precipitation  
Precipitation 0.00 in 0.01 in 0.00 in (2015)
Month to date precipitation 0.00 0.02  
Year to date precipitation 0.08 1.79  
Since 1 July precipitation 1.55 3.17  
Snow  
Snow 0.00 in - - ()
Month to date snowfall 0.0  
Year to date snowfall 0.0  
Since 1 July snowfall 0.0  
Snow Depth 0.00 in    
Sea Level Pressure  
Sea Level Pressure 29.66 in    
Wind  
Wind Speed 6 mph (NW)    
Max Wind Speed 22 mph    
Max Gust Speed 28 mph    
Visibility 9 miles    
Events      
T = Trace of Precipitation, MM = Missing Value Source: NWS Daily Summary

Daily Weather History Graph

Daily Weather History Graph

Search for Another Location

Airport or City:

Trip Planner

Search our weather history database for the weather conditions in past years. The results will help you decide how hot, cold, wet, or windy it might be!

Date:

Astronomy

May. 18, 2014 Rise Set
Actual Time 5:41 AM PDT 7:40 PM PDT
Civil Twilight 5:14 AM PDT 8:08 PM PDT
Nautical Twilight 4:40 AM PDT 8:42 PM PDT
Astronomical Twilight 4:04 AM PDT 9:18 PM PDT
Moon 11:36 PM PDT (5/18) 9:33 AM PDT (5/18)
Length of Visible Light 14h 54m
Length of Day
13h 58m
Waning Gibbous, 80% of the Moon is Illuminated
May 18
Waning Gibbous
May 21
Last Quarter
May 28
New
Jun 5
First Quarter
Jun 12
Full

Hourly Weather History & Observations

Time (PDT) Temp. Dew Point Humidity Pressure Visibility Wind Dir Wind Speed Gust Speed Precip Events Conditions
12:52 AM 84.9 °F 32.0 °F 15% 29.65 in 10.0 mi NNW 12.7 mph - N/A   Clear
1:52 AM 84.0 °F 34.0 °F 17% 29.64 in 10.0 mi NNW 10.4 mph - N/A   Clear
2:52 AM 80.1 °F 37.9 °F 22% 29.64 in 10.0 mi WNW 8.1 mph - N/A   Clear
3:52 AM 70.0 °F 37.9 °F 31% 29.65 in 10.0 mi SE 5.8 mph - N/A   Clear
4:52 AM 72.0 °F 39.9 °F 31% 29.66 in 10.0 mi East 4.6 mph - N/A   Clear
5:52 AM 71.1 °F 41.0 °F 34% 29.68 in 10.0 mi WSW 3.5 mph - N/A   Clear
6:52 AM 73.9 °F 42.1 °F 32% 29.69 in 10.0 mi East 3.5 mph - N/A   Clear
7:52 AM 80.1 °F 45.0 °F 29% 29.70 in 10.0 mi Calm Calm - N/A   Clear
8:52 AM 84.0 °F 41.0 °F 22% 29.72 in 10.0 mi Variable 3.5 mph - N/A   Clear
9:52 AM 87.1 °F 39.0 °F 18% 29.72 in 10.0 mi Calm Calm - N/A   Clear
10:52 AM 90.0 °F 35.1 °F 14% 29.72 in 10.0 mi Variable 6.9 mph - N/A   Clear
11:52 AM 91.9 °F 30.9 °F 11% 29.70 in 10.0 mi Calm Calm - N/A   Clear
12:52 PM 96.1 °F 28.9 °F 9% 29.68 in 10.0 mi WNW 9.2 mph - N/A   Clear
1:52 PM 99.0 °F 26.1 °F 8% 29.66 in 10.0 mi Variable 5.8 mph - N/A   Clear
2:52 PM 100.9 °F 26.1 °F 7% 29.64 in 10.0 mi WNW 4.6 mph - N/A   Clear
3:52 PM 102.0 °F 26.1 °F 7% 29.61 in 10.0 mi NW 9.2 mph - N/A   Clear
4:52 PM 100.9 °F 28.0 °F 8% 29.64 in 10.0 mi West 19.6 mph 27.6 mph N/A   Clear
5:52 PM 99.0 °F 33.1 °F 10% 29.62 in 10.0 mi NW 15.0 mph - N/A   Clear
6:52 PM 93.9 °F 37.9 °F 14% 29.62 in 10.0 mi NNW 15.0 mph - N/A   Clear
7:52 PM 89.1 °F 43.0 °F 20% 29.62 in 6.0 mi NNW 24.2 mph 32.2 mph N/A   Haze
8:16 PM 87.1 °F 45.0 °F 23% 29.61 in 3.0 mi NNW 26.5 mph 35.7 mph N/A   Haze
8:52 PM 84.9 °F 46.0 °F 26% 29.62 in 6.0 mi NNW 23.0 mph 33.4 mph N/A   Haze
9:52 PM 82.0 °F 44.1 °F 26% 29.66 in 8.0 mi North 23.0 mph 35.7 mph N/A   Clear
10:52 PM 79.0 °F 44.1 °F 29% 29.69 in 9.0 mi SSW 5.8 mph - N/A   Clear
11:52 PM 78.1 °F 43.0 °F 29% 29.69 in 10.0 mi NNW 17.3 mph 23.0 mph N/A   Clear